• In Russia
  • List of Countries
  • For 7 days
  • Water Temperature
  • Satellite Maps
  • Weather Map
  • Weather Widgets
  • user-avatar
    Login

    Hourly Weather La Rioja

    Today, 21 June, Thursday

    Time Temperature Precipitation Wind Pressure Humidity
    00:00 +16°C° 0 mm 2 mps 714 mmHg 61%
    01:00 +16°C° 0 mm 2 mps 714 mmHg 61%
    02:00 +16°C° 0 mm 2 mps 714 mmHg 61%
    03:00 +15°C° 0 mm 2 mps 715 mmHg 62%
    04:00 +15°C° 0 mm 2 mps 715 mmHg 63%
    05:00 +14°C° 0 mm 2 mps 715 mmHg 64%
    06:00 +14°C° 0 mm 2 mps 716 mmHg 64%
    07:00 +14°C° 0 mm 2 mps 717 mmHg 64%
    08:00 +14°C° 0 mm 2 mps 718 mmHg 63%
    09:00 +17°C° 0 mm 2 mps 718 mmHg 58%
    10:00 +19°C° 0 mm 2 mps 719 mmHg 52%
    11:00 +21°C° 0 mm 2 mps 720 mmHg 47%
    12:00 +22°C° 0 mm 3 mps 719 mmHg 47%
    13:00 +22°C° 0 mm 3 mps 719 mmHg 47%
    14:00 +22°C° 0 mm 3 mps 718 mmHg 48%
    15:00 +22°C° 0 mm 3 mps 718 mmHg 49%
    16:00 +21°C° 0 mm 3 mps 718 mmHg 51%
    17:00 +21°C° 0 mm 3 mps 717 mmHg 52%
    18:00 +19°C° 0 mm 2 mps 717 mmHg 57%
    19:00 +18°C° 0 mm 2 mps 717 mmHg 62%
    20:00 +16°C° 0 mm 2 mps 718 mmHg 67%
    21:00 +16°C° 0 mm 2 mps 717 mmHg 66%
    22:00 +15°C° 0 mm 2 mps 717 mmHg 66%
    23:00 +15°C° 0 mm 2 mps 717 mmHg 66%

    Tomorrow, 22 June, Friday

    Time Temperature Precipitation Wind Pressure Humidity
    00:00 +14°C° 0 mm 2 mps 717 mmHg 65%
    01:00 +14°C° 0 mm 2 mps 716 mmHg 65%
    02:00 +13°C° 0 mm 2 mps 716 mmHg 64%
    03:00 +13°C° 0 mm 2 mps 715 mmHg 64%
    04:00 +12°C° 0 mm 2 mps 715 mmHg 63%
    05:00 +12°C° 0 mm 2 mps 714 mmHg 63%
    06:00 +12°C° 0 mm 2 mps 714 mmHg 62%
    07:00 +12°C° 0 mm 2 mps 714 mmHg 61%
    08:00 +12°C° 0 mm 2 mps 714 mmHg 60%
    09:00 +14°C° 0 mm 2 mps 714 mmHg 54%
    10:00 +16°C° 0 mm 2 mps 714 mmHg 47%
    11:00 +18°C° 0 mm 2 mps 713 mmHg 40%
    12:00 +19°C° 0 mm 2 mps 712 mmHg 38%
    13:00 +20°C° 0 mm 2 mps 711 mmHg 36%
    14:00 +21°C° 0 mm 2 mps 710 mmHg 34%
    15:00 +21°C° 0 mm 2 mps 709 mmHg 36%
    16:00 +21°C° 0 mm 2 mps 709 mmHg 38%
    17:00 +20°C° 0 mm 2 mps 708 mmHg 40%
    18:00 +19°C° 0 mm 2 mps 709 mmHg 45%
    19:00 +17°C° 0 mm 2 mps 709 mmHg 51%
    20:00 +16°C° 0 mm 2 mps 709 mmHg 57%
    21:00 +15°C° 0 mm 2 mps 709 mmHg 60%
    22:00 +15°C° 0 mm 2 mps 710 mmHg 64%
    23:00 +14°C° 0 mm 2 mps 710 mmHg 67%

    Day after tomorrow, 23 June, Saturday

    Time Temperature Precipitation Wind Pressure Humidity
    00:00 +14°C° 0 mm 2 mps 710 mmHg 68%
    01:00 +13°C° 0 mm 2 mps 710 mmHg 68%
    02:00 +13°C° 0 mm 2 mps 710 mmHg 69%
    03:00 +13°C° 0 mm 2 mps 710 mmHg 70%
    04:00 +12°C° 0 mm 2 mps 710 mmHg 70%
    05:00 +12°C° 0 mm 2 mps 710 mmHg 71%
    06:00 +12°C° 0 mm 2 mps 711 mmHg 71%
    07:00 +12°C° 0 mm 2 mps 711 mmHg 71%
    08:00 +12°C° 0 mm 1 mps 712 mmHg 72%
    09:00 +14°C° 0 mm 2 mps 713 mmHg 64%
    10:00 +17°C° 0 mm 2 mps 713 mmHg 57%
    11:00 +19°C° 0 mm 2 mps 714 mmHg 49%
    12:00 +19°C° 0 mm 3 mps 714 mmHg 48%
    13:00 +20°C° 0 mm 3 mps 714 mmHg 47%
    14:00 +20°C° 0 mm 4 mps 714 mmHg 46%
    15:00 +20°C° 0 mm 3 mps 714 mmHg 50%
    16:00 +19°C° 0 mm 3 mps 715 mmHg 54%
    17:00 +19°C° 0 mm 3 mps 716 mmHg 57%
    18:00 +17°C° 0 mm 3 mps 717 mmHg 61%
    19:00 +16°C° 0 mm 2 mps 719 mmHg 65%
    20:00 +15°C° 0 mm 2 mps 720 mmHg 69%
    21:00 +15°C° 0 mm 2 mps 721 mmHg 62%
    22:00 +14°C° 0 mm 3 mps 722 mmHg 56%
    23:00 +13°C° 0 mm 3 mps 723 mmHg 49%

    24 June, Sunday

    Time Temperature Precipitation Wind Pressure Humidity
    00:00 +12°C° 0 mm 3 mps 723 mmHg 50%
    01:00 +11°C° 0 mm 3 mps 723 mmHg 50%
    02:00 +10°C° 0 mm 2 mps 723 mmHg 51%
    03:00 +10°C° 0 mm 2 mps 723 mmHg 52%
    04:00 +9°C° 0 mm 2 mps 722 mmHg 54%
    05:00 +9°C° 0 mm 2 mps 722 mmHg 55%
    06:00 +9°C° 0 mm 2 mps 722 mmHg 55%
    07:00 +9°C° 0 mm 2 mps 722 mmHg 55%
    08:00 +9°C° 0 mm 2 mps 722 mmHg 55%
    09:00 +10°C° 0 mm 2 mps 721 mmHg 51%
    10:00 +13°C° 0 mm 2 mps 721 mmHg 47%
    11:00 +14°C° 0 mm 3 mps 720 mmHg 43%
    12:00 +16°C° 0 mm 3 mps 719 mmHg 41%
    13:00 +17°C° 0 mm 3 mps 718 mmHg 39%
    14:00 +17°C° 0 mm 3 mps 717 mmHg 36%
    15:00 +17°C° 0 mm 3 mps 717 mmHg 37%
    16:00 +17°C° 0 mm 3 mps 716 mmHg 38%
    17:00 +16°C° 0 mm 3 mps 716 mmHg 38%
    18:00 +14°C° 0 mm 3 mps 716 mmHg 43%
    19:00 +12°C° 0 mm 3 mps 717 mmHg 47%
    20:00 +12°C° 0 mm 2 mps 717 mmHg 51%
    21:00 +10°C° 0 mm 2 mps 717 mmHg 53%
    22:00 +10°C° 0 mm 2 mps 717 mmHg 55%
    23:00 +9°C° 0 mm 2 mps 717 mmHg 56%

    25 June, Monday

    Time Temperature Precipitation Wind Pressure Humidity
    00:00 +9°C° 0 mm 2 mps 717 mmHg 56%
    01:00 +9°C° 0 mm 2 mps 717 mmHg 57%
    02:00 +8°C° 0 mm 2 mps 716 mmHg 57%
    03:00 +8°C° 0 mm 2 mps 716 mmHg 57%
    04:00 +8°C° 0 mm 2 mps 716 mmHg 58%
    05:00 +7°C° 0 mm 2 mps 716 mmHg 59%
    06:00 +8°C° 0 mm 2 mps 717 mmHg 57%
    07:00 +8°C° 0 mm 2 mps 717 mmHg 55%
    08:00 +8°C° 0 mm 2 mps 717 mmHg 54%
    09:00 +10°C° 0 mm 2 mps 718 mmHg 47%
    10:00 +13°C° 0 mm 2 mps 718 mmHg 40%
    11:00 +16°C° 0 mm 2 mps 718 mmHg 34%
    12:00 +17°C° 0 mm 2 mps 717 mmHg 32%
    13:00 +18°C° 0 mm 3 mps 716 mmHg 30%
    14:00 +19°C° 0 mm 3 mps 715 mmHg 28%
    15:00 +18°C° 0 mm 2 mps 715 mmHg 29%
    16:00 +18°C° 0 mm 2 mps 715 mmHg 31%
    17:00 +17°C° 0 mm 2 mps 715 mmHg 32%
    18:00 +16°C° 0 mm 2 mps 715 mmHg 36%
    19:00 +14°C° 0 mm 2 mps 715 mmHg 40%
    20:00 +13°C° 0 mm 2 mps 715 mmHg 44%
    21:00 +12°C° 0 mm 2 mps 715 mmHg 44%
    22:00 +12°C° 0 mm 2 mps 715 mmHg 44%
    23:00 +12°C° 0 mm 2 mps 715 mmHg 44%

    26 June, Tuesday

    Time Temperature Precipitation Wind Pressure Humidity
    00:00 +12°C° 0 mm 2 mps 715 mmHg 45%
    01:00 +10°C° 0 mm 2 mps 714 mmHg 46%
    02:00 +10°C° 0 mm 2 mps 714 mmHg 46%
    03:00 +10°C° 0 mm 2 mps 714 mmHg 47%
    04:00 +10°C° 0 mm 2 mps 713 mmHg 47%
    05:00 +9°C° 0 mm 2 mps 713 mmHg 48%
    06:00 +9°C° 0 mm 2 mps 713 mmHg 47%
    07:00 +10°C° 0 mm 2 mps 713 mmHg 46%
    08:00 +10°C° 0 mm 2 mps 713 mmHg 45%
    09:00 +13°C° 0 mm 2 mps 713 mmHg 40%
    10:00 +16°C° 0 mm 2 mps 713 mmHg 34%
    11:00 +18°C° 0 mm 2 mps 713 mmHg 29%
    12:00 +19°C° 0 mm 2 mps 712 mmHg 27%
    13:00 +20°C° 0 mm 2 mps 711 mmHg 26%
    14:00 +22°C° 0 mm 3 mps 710 mmHg 24%
    15:00 +21°C° 0 mm 2 mps 710 mmHg 25%
    16:00 +20°C° 0 mm 2 mps 710 mmHg 27%
    17:00 +20°C° 0 mm 2 mps 710 mmHg 28%
    18:00 +18°C° 0 mm 2 mps 710 mmHg 32%
    19:00 +17°C° 0 mm 2 mps 711 mmHg 35%
    20:00 +14°C° 0 mm 3 mps 711 mmHg 39%
    21:00 +14°C° 0 mm 3 mps 711 mmHg 42%
    22:00 +14°C° 0 mm 3 mps 711 mmHg 46%
    23:00 +13°C° 0 mm 3 mps 711 mmHg 50%
    Show more